Location: ?
(35.4554°N, 139.3092°E)
Time: 21:30:34
(UTC+00:00)

Cosmos 1725 Rocket - Pass Details

Date: 21 April 2021
Orbit: 962 x 990 km, 82.9° (Epoch: 10 May)

Event Time Altitude Azimuth Distance (km) Brightness Sun altitude
Rises 19:31:45 0° 351° (N) 3,706 7.2 -6.7°
Reaches altitude 10° 19:34:17 10° 350° (N) 2,751 6.5 -6.2°
Maximum altitude 19:40:35 75° 266° (W) 1,019 4.0 -5.0°
Drops below altitude 10° 19:46:47 10° 182° (S) 2,719 6.1 -3.8°
Sets 19:49:17 0° 181° (S) 3,659 6.8 -3.3°
